Location: ActonStarParty
(42.4766°N, 71.4538°W)
Time: 01:59:08
(UTC-04:00)

ISS - All Passes

Search period start: 01 October 2014 00:00
Search period end: 11 October 2014 00:00
Orbit: 413 x 416 km, 51.6° (Epoch: 30 September)

Date Brightness Start Highest point End Pass type
(mag) Time Alt. Az. Time Alt. Az. Time Alt. Az.
01 Oct - 00:45:04 10° WNW 00:47:35 19° NNW 00:50:05 10° NE night (unlit)
01 Oct - 02:22:45 10° NW 02:25:10 18° N 02:27:35 10° NE night (unlit)
01 Oct - 03:59:12 10° NW 04:02:27 48° NNE 04:05:40 10° ESE visible
01 Oct - 05:36:18 10° W 05:38:57 22° SW 05:41:35 10° S visible
01 Oct - 22:17:56 10° SW 22:21:15 82° SE 22:24:36 10° ENE night (unlit)
01 Oct - 23:55:32 10° WNW 23:58:16 23° NNW 00:01:01 10° NE night (unlit)
02 Oct - 01:33:33 10° NW 01:35:49 17° N 01:38:06 10° NE night (unlit)
02 Oct - 03:10:10 10° NW 03:13:14 33° NNE 03:16:18 10° E night (unlit)
02 Oct - 04:46:51 10° WNW 04:49:58 38° SW 04:53:04 10° SSE visible
02 Oct - 21:28:59 10° SW 21:32:11 46° SE 21:35:24 10° ENE night (unlit)
02 Oct - 23:06:00 10° W 23:08:59 30° NNW 23:11:59 10° NE night (unlit)
03 Oct - 00:44:11 10° NW 00:46:26 17° N 00:48:42 10° NE night (unlit)
03 Oct - 02:21:08 10° NW 02:23:58 25° NNE 02:26:47 10° ENE night (unlit)
03 Oct - 03:57:36 10° WNW 04:00:54 69° SW 04:04:12 10° SE visible
03 Oct - 20:40:18 10° SSW 20:43:09 26° SE 20:46:00 10° ENE night (unlit)
03 Oct - 22:16:32 10° W 22:19:43 42° NNW 22:22:55 10° NE night (unlit)
03 Oct - 23:54:41 10° NW 23:57:03 18° N 23:59:24 10° NE night (unlit)
04 Oct - 01:32:02 10° NW 01:34:37 20° NNE 01:37:12 10° ENE night (unlit)
04 Oct - 03:08:26 10° NW 03:11:45 70° NNE 03:15:04 10° ESE night (unlit)
04 Oct - 04:46:08 10° W 04:48:05 15° SW 04:50:01 10° SSW night (unlit)
04 Oct - 19:52:06 10° S 19:54:09 16° SE 19:56:12 10° E visible
04 Oct - 21:27:11 10° WSW 21:30:29 67° NNW 21:33:49 10° NE night (unlit)
04 Oct - 23:05:05 10° WNW 23:07:38 20° NNW 23:10:12 10° NE night (unlit)
05 Oct - 00:42:50 10° NW 00:45:13 18° N 00:47:35 10° NE night (unlit)
05 Oct - 02:19:19 10° NW 02:22:32 44° NNE 02:25:43 10° ESE night (unlit)
05 Oct - 03:56:17 10° WNW 03:59:05 25° SW 04:01:52 10° SSE night (unlit)
05 Oct - 20:37:59 10° SW 20:41:17 72° SE 20:44:37 10° ENE visible
05 Oct - 22:15:26 10° WNW 22:18:15 25° NNW 22:21:04 10° NE night (unlit)
05 Oct - 23:53:31 10° NW 23:55:46 17° N 23:58:02 10° NE night (unlit)
06 Oct - 01:30:12 10° NW 01:33:13 31° NNE 01:36:13 10° E night (unlit)
06 Oct - 03:06:48 10° WNW 03:10:00 44° SW 03:13:10 10° SSE night (unlit)
06 Oct - 19:49:00 10° SSW 19:52:08 40° SE 19:55:17 10° ENE visible
06 Oct - 21:25:50 10° W 21:28:52 32° NNW 21:31:56 10° NE visible
06 Oct - 23:04:01 10° NW 23:06:18 17° N 23:08:34 10° NE night (unlit)
07 Oct - 00:41:04 10° NW 00:43:50 24° NNE 00:46:35 10° ENE night (unlit)
07 Oct - 02:17:29 10° WNW 02:20:49 79° SW 02:24:08 10° SE night (unlit)
07 Oct - 19:00:20 10° S 19:03:01 23° SE 19:05:43 10° E visible
07 Oct - 20:36:18 10° WSW 20:39:32 47° NNW 20:42:46 10° NE visible
07 Oct - 22:14:24 10° NW 22:16:48 18° N 22:19:13 10° NE night (unlit)
07 Oct - 23:51:51 10° NW 23:54:23 20° NNE 23:56:54 10° ENE night (unlit)
08 Oct - 01:28:15 10° NW 01:31:34 62° NNE 01:34:51 10° ESE night (unlit)
08 Oct - 03:05:42 10° W 03:07:56 17° SW 03:10:10 10° S night (unlit)
08 Oct - 18:12:14 10° SSE 18:13:57 13° SE 18:15:39 10° E daylight
08 Oct - 19:46:54 10° WSW 19:50:13 77° NNW 19:53:33 10° NE visible
08 Oct - 21:24:42 10° WNW 21:27:19 21° NNW 21:29:57 10° NE visible
08 Oct - 23:02:33 10° NW 23:04:53 17° N 23:07:13 10° NE night (unlit)
09 Oct - 00:39:03 10° NW 00:42:13 39° NNE 00:45:22 10° E night (unlit)
09 Oct - 02:15:54 10° WNW 02:18:50 29° SW 02:21:45 10° SSE night (unlit)
09 Oct - 18:57:40 10° SW 19:00:57 62° SE 19:04:14 10° ENE visible
09 Oct - 20:34:58 10° W 20:37:50 26° NNW 20:40:43 10° NE visible
09 Oct - 22:13:05 10° NW 22:15:20 17° N 22:17:35 10° NE night (unlit)
09 Oct - 23:49:51 10° NW 23:52:48 28° NNE 23:55:45 10° E night (unlit)
10 Oct - 01:26:23 10° WNW 01:29:38 51° SW 01:32:51 10° SE night (unlit)
10 Oct - 18:08:40 10° SSW 18:11:43 34° SE 18:14:46 10° ENE daylight
10 Oct - 19:45:17 10° W 19:48:23 35° NNW 19:51:29 10° NE visible
10 Oct - 21:23:28 10° NW 21:25:46 17° N 21:28:04 10° NE visible
10 Oct - 23:00:36 10° NW 23:03:19 22° NNE 23:06:00 10° ENE night (unlit)
